Location: Unspecified
(41.1850°N, 73.2650°W)
Time: 21:27:38
(UTC+00:00)

SL-08 R/B - Pass Details

Date: 14 December 2025
Orbit: 946 x 991 km, 83.0° (Epoch: 11 January)

Event Time Altitude Azimuth Distance (km) Brightness Sun altitude
Rises 23:18:41 0° 352° (N) 3,709 7.5 -20.6°
Reaches altitude 10° 23:21:12 10° 352° (N) 2,759 6.8 -21.1°
Maximum altitude 23:27:34 88° 267° (W) 998 4.5 -22.3°
Drops below altitude 10° 23:33:53 10° 176° (S) 2,741 6.9 -23.4°
Sets 23:36:23 0° 176° (S) 3,683 7.6 -23.9°
